Theta_e
342 345 347 348 349 354 355 357 361 368 361 360 357 358 352 361 362 357 366 360 371 364 368 367 364 359 363 363 368 364 360 357 361 356 353 354 357 355 356 355 353 355 352
338 342 344 346 347 353 357 360 361 365 364 362 360 360 362 359 360 363 367 371 374 374 367 370 366 366 363 365 364 366 359 357 357 353 351 345 350 356 354 354 353 357 354
336 339 343 344 347 352 357 361 363 365 365 368 367 372 370 370 368 366 363 366 373 369 370 372 368 367 369 360 363 361 362 356 358 358 351 339 338 345 355 351 352 353 353
336 339 339 341 343 349 355 361 365 367 365 368 367 369 359 356 358 362 359 360 369 371 369 369 369 371 368 366 364 363 362 361 353 358 359 356 354 341 337 352 353 354 352
334 335 337 340 343 347 352 357 364 367 368 367 368 366 364 362 367 368 373 371 374 372 369 373 372 371 367 366 367 363 367 364 359 356 354 354 355 351 345 338 343 350 352
336 338 340 342 342 347 349 354 363 365 367 369 368 370 367 363 366 363 367 365 361 360 368 368 372 375 371 369 369 369 366 364 362 361 360 354 350 348 345 341 342 343 347
337 338 340 341 342 344 347 351 362 363 366 368 368 368 369 373 369 371 367 365 363 362 361 369 373 369 372 371 371 369 367 367 363 362 357 359 356 352 348 345 343 340 348
335 338 341 342 344 347 348 350 360 363 366 366 368 370 369 366 365 369 364 365 363 368 374 375 376 374 374 374 373 368 365 365 364 364 362 359 357 353 351 345 341 338 341
332 335 342 344 345 347 349 351 358 363 364 365 368 369 370 368 365 371 373 364 371 366 372 374 374 376 377 375 374 367 366 367 368 365 364 362 357 358 355 346 342 341 333
328 330 333 343 345 344 347 352 356 360 363 363 367 367 368 371 369 372 375 374 377 378 378 378 376 375 375 374 373 368 367 367 366 363 361 363 360 358 355 348 346 345 340
327 334 337 342 347 347 347 347 355 359 361 361 363 364 365 368 370 368 371 371 369 373 375 377 374 371 374 374 370 370 369 367 368 366 363 361 361 359 360 353 350 347 348
330 331 336 342 355 354 351 353 354 354 358 363 369 364 367 370 363 365 367 373 371 371 377 374 370 371 373 371 367 364 364 362 363 362 362 360 357 355 356 352 350 351 352
333 333 335 340 352 357 366 360 358 354 355 363 359 359 362 362 363 364 364 364 366 371 367 368 373 374 373 366 367 364 358 357 358 362 363 360 360 356 353 354 353 352 356
338 335 336 342 357 364 369 371 360 364 358 357 355 360 359 358 358 363 366 366 377 376 370 372 374 375 367 366 363 360 357 359 360 358 362 362 361 358 357 357 357 358 356
332 336 342 354 360 363 364 368 360 365 368 360 358 363 366 363 364 366 368 369 373 373 377 375 374 374 371 371 366 365 363 361 361 360 361 361 360 357 356 358 358 357 352
334 338 353 354 356 360 360 363 364 367 371 371 366 368 367 366 369 377 376 378 377 378 379 375 373 371 364 349 349 349 359 361 363 359 361 362 356 355 348 345 346 351 351
335 339 351 353 356 361 363 363 365 367 368 368 367 366 368 373 376 377 376 371 370 369 365 363 365 365 367 346 342 345 350 352 354 358 359 358 355 353 360 348 342 342 340
338 339 345 351 358 359 360 363 364 366 365 363 364 372 374 372 371 369 366 365 363 362 361 358 358 359 356 347 340 343 346 345 346 353 359 358 358 357 357 357 354 352 350
340 339 341 348 355 357 361 361 361 363 361 368 371 372 370 366 365 361 358 360 357 356 354 352 355 353 351 342 337 339 344 339 340 341 344 350 355 347 339 349 347 347 347
342 338 340 348 350 356 359 363 362 363 367 368 368 367 366 361 357 355 357 359 359 353 352 350 350 344 346 338 333 334 339 336 335 338 338 333 332 326 329 345 346 343 345
338 342 343 345 350 353 356 360 362 364 366 367 364 361 358 356 355 358 361 360 356 355 351 348 348 349 345 344 332 329 338 337 335 335 333 334 328 324 323 322 337 341 338
338 341 345 345 349 354 358 360 362 367 367 363 359 358 359 351 351 355 359 356 353 349 347 346 346 344 349 336 334 328 325 335 336 336 337 340 320 317 318 323 327 325 329
350 350 348 341 349 356 360 361 367 365 361 356 354 355 356 355 354 348 355 348 348 346 341 335 330 331 336 336 328 324 322 324 329 333 330 320 316 316 320 324 321 321 327
351 352 344 334 339 358 365 363 362 358 355 354 355 352 353 354 357 351 345 342 340 337 336 333 332 331 332 334 336 333 332 326 326 326 323 321 319 319 320 321 326 329 331
359 359 356 346 347 349 351 354 354 356 351 351 345 343 342 343 346 347 342 340 342 334 333 331 331 330 329 331 320 317 323 322 318 313 320 319 320 320 320 320 322 324 329
356 349 349 342 343 343 344 348 344 343 341 341 341 340 337 339 339 336 335 326 317 314 309 308 317 330 319 310 303 301 301 302 304 315 317 318 319 319 320 321 321 324 327
Wind_Speed
15 16 14 15 16 14 13 11 9 8 7 7 6 5 5 4 3 3 9 8 5 7 7 5 4 4 6 4 1 4 5 5 4 1 5 8 8 7 4 7 7 10 12
18 16 17 16 15 16 15 13 11 10 7 6 7 6 4 8 8 6 5 7 5 3 4 4 3 5 5 5 5 4 4 5 5 4 3 3 2 4 7 7 6 10 10
17 17 17 17 15 16 16 15 14 13 11 9 5 2 3 1 1 4 5 8 8 7 6 4 5 4 4 5 6 5 6 5 5 8 2 3 1 3 3 8 10 12 10
17 17 19 18 18 15 16 15 15 14 12 11 7 6 5 5 5 5 7 6 9 8 9 9 7 5 5 5 4 5 5 5 6 4 4 4 2 1 4 2 4 7 9
20 19 19 18 18 16 16 15 15 14 13 12 10 8 7 6 3 3 4 3 5 6 6 6 8 8 6 8 6 5 5 4 4 6 6 3 2 4 4 4 4 2 5
20 19 19 18 16 16 16 16 16 15 14 13 13 10 9 8 4 5 3 4 6 8 9 9 7 6 6 6 5 5 7 6 5 4 5 5 4 3 4 5 7 5 5
18 19 18 16 17 17 16 14 17 15 14 13 13 12 9 7 6 4 3 4 4 3 9 8 5 6 6 6 5 5 5 5 5 7 7 5 6 8 6 7 7 7 2
16 22 20 16 17 16 17 15 18 15 14 14 12 10 11 7 6 5 5 4 5 4 6 4 4 6 6 6 7 5 7 9 7 7 8 7 7 6 5 4 5 8 3
9 12 20 17 17 17 18 16 15 16 15 14 11 10 9 10 7 7 6 6 5 4 4 4 4 4 5 6 6 6 7 6 5 6 5 5 4 2 1 2 2 6 2
4 5 6 19 16 18 18 17 14 16 14 14 12 10 10 9 8 5 5 5 3 4 3 3 4 5 7 7 7 7 8 8 5 4 6 3 3 2 3 4 6 4 3
9 9 7 3 14 14 14 15 14 13 13 12 13 12 11 10 9 7 6 6 7 6 6 5 5 7 8 7 7 7 8 7 5 4 5 6 3 3 2 2 1 3 2
10 8 8 7 8 9 10 12 13 13 13 10 6 11 9 8 11 11 10 5 6 8 6 5 7 9 7 7 8 9 10 9 8 7 7 7 3 4 4 4 7 7 8
10 10 10 8 5 7 6 9 12 12 13 10 10 10 10 7 6 6 6 9 10 8 7 7 6 7 6 8 8 10 8 12 8 7 8 8 6 6 5 5 5 6 6
10 11 12 11 7 4 6 5 8 7 9 14 11 8 9 13 10 8 6 4 1 3 5 4 6 4 7 7 8 8 7 10 7 8 9 8 8 9 8 8 8 7 8
14 11 12 12 10 9 8 6 8 7 6 11 11 9 4 7 6 6 4 3 3 4 3 4 5 6 6 4 4 5 6 7 6 7 9 9 12 13 11 7 7 6 6
14 11 15 15 13 13 11 9 9 7 7 7 7 7 5 5 1 2 2 3 3 3 2 4 4 4 5 4 1 4 6 7 6 7 7 9 11 12 15 17 14 9 8
17 14 17 14 14 14 13 11 11 9 8 7 5 6 5 6 5 4 4 7 6 6 6 7 6 5 6 3 1 4 6 8 8 8 8 8 10 8 6 11 11 13 14
15 13 16 16 15 15 16 13 12 10 10 9 9 9 8 6 7 5 4 4 2 2 2 4 5 5 5 5 5 5 5 7 10 11 10 8 9 9 8 5 6 10 10
21 17 16 19 17 15 13 13 13 13 12 11 10 8 9 8 6 5 4 2 2 3 4 5 4 5 5 7 9 6 6 7 8 8 10 10 10 12 11 6 9 8 8
19 24 22 20 18 16 14 12 12 12 12 11 10 8 8 7 5 5 3 2 2 5 4 5 6 8 8 9 8 8 6 7 6 7 7 10 7 10 9 6 6 8 11
6 19 19 20 20 18 18 13 12 11 11 11 10 8 7 7 6 4 2 2 4 4 6 8 8 10 11 12 13 12 7 6 6 4 7 7 5 7 8 3 5 8 8
13 20 16 19 21 18 16 14 11 11 12 11 9 6 5 3 6 3 1 3 5 7 7 9 8 7 7 9 11 12 14 11 8 5 5 4 8 10 9 7 11 11 9
16 17 21 25 23 8 11 13 13 12 10 9 8 6 4 1 1 1 3 5 6 6 4 3 6 6 5 8 11 8 5 6 4 7 8 12 13 15 14 13 16 12 7
17 18 15 12 24 23 14 16 14 10 9 6 5 5 2 2 4 3 4 6 5 5 4 5 4 5 6 5 6 4 3 4 4 6 7 10 13 16 14 13 12 10 10
13 15 15 14 14 20 10 17 13 9 8 5 3 2 4 4 4 6 7 6 5 5 5 6 6 6 7 6 4 4 6 5 5 6 7 9 9 11 11 12 12 11 11
15 15 16 16 16 10 11 12 10 10 7 2 3 4 3 4 4 6 7 9 10 11 9 10 8 9 10 8 14 11 9 6 6 4 8 10 11 11 11 12 12 11 12
Wind_Direction
190 171 192 179 163 154 159 170 181 149 156 161 209 220 178 192 184 180 155 182 197 185 195 204 225 200 269 263 216 259 255 262 208 226 264 260 204 208 211 187 204 207 200
187 189 190 187 191 165 167 169 184 166 185 200 204 214 211 187 186 202 186 181 199 205 198 226 236 215 264 194 222 226 286 265 220 209 240 311 292 203 174 189 205 200 200
194 187 189 196 190 173 172 173 179 177 190 209 205 229 322 8 291 162 176 207 180 188 223 212 229 259 256 268 199 215 234 273 301 236 176 331 176 321 192 170 200 211 200
195 186 195 198 190 186 175 175 180 180 189 215 198 201 193 223 211 208 206 218 176 198 201 208 209 211 253 278 263 238 239 244 280 303 241 279 265 194 307 238 199 199 199
185 194 198 197 200 184 178 177 178 184 190 197 226 187 223 227 256 223 151 149 182 195 214 211 194 200 211 248 253 260 230 240 255 271 304 287 258 230 226 256 277 272 231
183 188 191 187 194 178 183 177 172 182 194 187 205 238 196 231 249 207 204 185 203 210 211 209 207 205 217 254 264 269 263 264 266 278 285 271 257 269 230 239 255 250 271
181 179 188 189 181 183 179 177 171 181 187 202 193 211 240 213 244 253 211 247 276 257 199 195 205 216 215 236 257 268 269 269 255 254 262 268 251 250 253 256 256 248 286
190 183 182 184 177 175 175 182 170 178 188 195 199 193 208 222 226 245 236 240 234 272 95 176 241 220 233 221 221 227 241 239 238 245 241 255 280 303 324 335 298 265 243
223 185 174 175 173 172 176 178 169 177 185 192 195 199 197 212 222 222 208 231 260 279 268 229 238 273 287 284 272 259 261 256 230 244 269 260 283 284 129 136 349 275 318
156 135 216 171 172 178 178 179 174 174 183 197 188 199 204 207 221 247 262 252 275 265 330 289 271 265 259 250 253 256 256 237 233 236 259 308 292 326 179 184 218 210 179
163 157 172 227 161 170 179 182 168 169 178 200 185 194 195 206 208 230 237 238 254 267 256 245 260 262 261 257 262 253 268 283 246 235 263 272 289 288 213 304 321 271 236
141 158 151 158 133 153 180 167 165 179 178 188 198 182 189 195 209 209 213 220 229 238 238 244 252 256 260 264 262 263 261 254 247 244 249 259 252 255 253 198 213 217 209
149 161 158 149 134 147 148 155 161 178 181 153 181 216 176 183 229 256 200 228 222 217 230 247 268 265 264 269 257 258 319 279 260 256 248 242 235 246 247 259 256 257 230
153 178 156 154 143 143 116 116 149 164 194 165 189 168 190 205 210 187 205 239 337 213 233 260 269 291 286 279 281 280 232 259 258 260 261 264 242 238 243 247 252 260 263
165 183 147 133 147 137 130 144 158 188 227 169 182 152 145 62 54 61 35 354 298 284 295 307 295 287 278 276 307 306 267 256 262 260 253 253 253 244 237 249 252 273 291
164 181 135 146 161 150 158 171 155 154 101 90 95 104 110 95 179 148 121 202 213 236 226 284 295 335 321 106 17 335 313 302 277 267 262 245 254 248 237 238 237 242 254
167 171 153 164 166 159 164 170 143 140 128 125 118 117 154 181 179 159 80 52 36 23 10 356 350 343 340 99 2 315 308 309 298 291 273 271 277 274 261 236 224 240 235
165 180 163 164 159 169 161 159 142 138 142 153 165 167 167 142 92 95 84 79 46 355 337 293 290 303 306 217 232 245 280 288 291 290 283 280 278 272 273 280 239 224 225
179 170 172 162 160 167 150 146 149 146 155 170 155 145 112 123 141 136 137 93 1 311 290 271 322 315 309 229 238 238 284 286 281 286 284 277 262 262 265 251 254 257 259
179 172 174 152 150 141 139 154 148 160 163 137 122 127 135 139 132 124 152 183 254 271 300 319 296 281 273 272 239 220 258 280 290 295 293 307 0 4 350 256 248 263 264
312 174 163 148 143 145 150 164 160 157 135 129 130 136 145 144 156 166 196 298 275 285 281 279 271 270 262 260 251 227 239 258 268 286 303 302 55 28 15 342 296 282 321
301 164 140 149 146 147 145 152 152 133 134 140 130 121 128 206 141 153 256 253 266 269 269 266 273 262 272 247 249 238 220 241 255 275 294 322 354 300 278 277 266 254 261
68 87 96 59 351 77 147 135 120 124 121 127 138 154 153 113 345 203 248 273 267 264 294 335 329 320 341 336 348 28 354 315 288 282 316 347 338 326 312 290 266 268 257
99 104 107 128 183 202 149 122 112 117 136 121 94 79 135 211 248 278 269 268 264 260 274 290 275 296 301 304 323 357 351 331 294 325 327 306 292 284 278 280 273 260 247
74 76 88 68 332 73 71 93 91 94 96 88 80 274 296 277 261 220 238 243 260 248 269 272 275 291 287 284 280 313 324 332 333 323 297 294 288 284 274 271 269 267 265
76 87 97 100 99 58 60 75 67 62 68 62 327 345 291 272 307 305 280 253 237 277 288 282 258 261 261 313 18 356 329 289 283 289 290 286 282 274 271 272 275 271 264